Tracking 19475 objects as of 18-Jan-2019
HD Live streaming from Space Station
objects crossing your sky now

WEINA 1B

Track WEINA 1B now!
10-day predictions


NORAD ID: 43279
Int'l Code: 2018-034E
Perigee: 1,072.4 km
Apogee: 1,121.9 km
Inclination: 63.4 °
Period: 107.0 minutes
Semi major axis: 7468 km
RCS: Unknown
Launch date: April 10, 2018
Source: People's Republic of China (PRC)
Launch site: Jiuquan Satellite Launch Center, China (JSC)
aabbcc
Your satellite tracking list
Your tracking list is empty




NASA's NSSDC Master Catalog

Two Line Element Set (TLE):
1 43279U 18034E   19018.49499656  .00000437  00000-0  88983-3 0  9995
2 43279  63.4048 205.4402 0033126   8.4017 351.7524 13.45187804 38092
Source of the keplerian elements: AFSPC